(184651) = 1995 SY17 = 2005 SX31

Discovered at Kitt Peak on 2005-09-23 by Spacewatch.

Orbit

Orbit type: Main Belt

Note: WebGL enabled browser required.

epoch2023-02-25.0
epoch JD2460000.5
perihelion date2020-06-01.19270
perihelion JD2459001.69270
argument of perihelion (°)282.32003
ascending node (°)85.09890
inclination (°)3.17877
eccentricity0.0800947
perihelion distance (AU)2.6686389
Tisserand w.r.t. Jupiter3.3
ΔV w.r.t. Earth (km/sec)10.2
semimajor axis (AU)2.9009930
mean anomaly (°)199.23495
mean daily motion (°/day)0.19947290
aphelion distance (AU)3.133
period (years)4.94
P-vector [x]0.99013085
P-vector [y]0.14013558
P-vector [z]0.00170924
Q-vector [x]-0.12879626
Q-vector [y]0.90506924
Q-vector [z]0.40529149
absolute magnitude16.5
phase slope0.15
uncertainty0
referenceMPO 745323
observations used313
oppositions16
arc length (days)10125
first opposition used1995
last opposition used2023
residual rms (arc-secs)0.75
perturbers coarse indicatorM-v
perturbers precise indicator003Ek
first observation date used1995-09-18.0
last observation date used2023-06-08.0
computer nameMPCLINUX
JD of orbit computation2456877.753804
perihelion JD uncertainty (days)1.0556E-04
argument of perihelion uncertainty (°)9.4332E-05
ascending node uncertainty (°)9.2235E-05
inclination uncertainty (°)3.5522E-06
eccentricity uncertainty 4.8325E-08
perihelion distance uncertainty (AU)1.4348E-07
Minimum Orbit Intersection Distances (in AU)
for orbit epoch: 2460000.5, reference: E2023-L38
Mercury2.3032
Venus1.94256
Earth1.66788
Mars1.24857
Jupiter2.27089
Saturn6.15061
Uranus15.3247
Neptune27.1638

Observations

316 total observations over interval: 1995 09 18.33197 – 2023 06 08.310325
These data are available for download (format description).

Date (UT) J2000 RA J2000 Dec Magn Location Ref
1995 09 18.33197 00 54 33.78 +00 29 51.0 20.4 V 691 – Steward Observatory, Kitt Peak-Spacewatch MPC 25826
1995 09 18.35264 00 54 32.90 +00 29 45.4   691 – Steward Observatory, Kitt Peak-Spacewatch MPC 25826
1995 09 18.38467 00 54 31.57 +00 29 36.1   691 – Steward Observatory, Kitt Peak-Spacewatch MPC 25826
1995 09 24.29797 00 50 17.81 +00 01 04.8 20.1 V 691 – Steward Observatory, Kitt Peak-Spacewatch MPC 25826
1995 09 24.31878 00 50 16.79 +00 00 58.7   691 – Steward Observatory, Kitt Peak-Spacewatch MPC 25826
1995 09 24.33969 00 50 15.80 +00 00 52.4   691 – Steward Observatory, Kitt Peak-Spacewatch MPC 25826
1998 04 03.35444 12 44 09.40 +00 07 54.9 20.9 V 691 – Steward Observatory, Kitt Peak-Spacewatch MPS 210142
1998 04 03.37568 12 44 08.38 +00 08 00.5 20.7 V 691 – Steward Observatory, Kitt Peak-Spacewatch MPS 210142
1998 04 03.39678 12 44 07.33 +00 08 06.4 20.8 V 691 – Steward Observatory, Kitt Peak-Spacewatch MPS 210142
2003 04 30.15407 12 44 42.03 -00 20 35.4 22.4 V 691 – Steward Observatory, Kitt Peak-Spacewatch MPS 210142
2003 04 30.18398 12 44 40.95 -00 20 30.9 22.5 V 691 – Steward Observatory, Kitt Peak-Spacewatch MPS 210142
2003 04 30.21174 12 44 39.91 -00 20 26.2 22.2 V 691 – Steward Observatory, Kitt Peak-Spacewatch MPS 210142
2005 09 23.34692 01 51 52.09 +06 40 57.6 20.6 V 691 – Steward Observatory, Kitt Peak-Spacewatch MPS 142778
2005 09 23.36452 01 51 51.46 +06 40 54.4 20.3 V 691 – Steward Observatory, Kitt Peak-Spacewatch MPS 142778
2005 09 23.38213 01 51 50.87 +06 40 50.4 20.4 V 691 – Steward Observatory, Kitt Peak-Spacewatch MPS 142778
2005 09 29.35407 01 48 13.07 +06 18 20.4 20.3 V 691 – Steward Observatory, Kitt Peak-Spacewatch MPS 142778
2005 09 29.37149 01 48 12.35 +06 18 16.2 20.2 V 691 – Steward Observatory, Kitt Peak-Spacewatch MPS 142778
2005 09 29.38890 01 48 11.64 +06 18 11.9 20.1 V 691 – Steward Observatory, Kitt Peak-Spacewatch MPS 142778
2005 10 08.33475 01 41 40.37 +05 41 01.0 20.2 V 691 – Steward Observatory, Kitt Peak-Spacewatch MPS 146139
2005 10 08.35553 01 41 39.36 +05 40 55.5 20.0 V 691 – Steward Observatory, Kitt Peak-Spacewatch MPS 146139
2005 10 08.37290 01 41 38.53 +05 40 50.9 20.0 V 691 – Steward Observatory, Kitt Peak-Spacewatch MPS 146139
2005 10 12.30701 01 38 30.20 +05 24 02.5 20.1 V 691 – Steward Observatory, Kitt Peak-Spacewatch MPS 146139
2005 10 12.32439 01 38 29.31 +05 23 58.1 20.0 V 691 – Steward Observatory, Kitt Peak-Spacewatch MPS 146139
2005 10 12.34177 01 38 28.42 +05 23 53.7 20.0 V 691 – Steward Observatory, Kitt Peak-Spacewatch MPS 146139
2005 10 25.15469 01 28 00.63 +04 32 25.8 20.1 V 691 – Steward Observatory, Kitt Peak-Spacewatch MPS 167107
2005 10 25.17009 01 27 59.92 +04 32 22.5 20.5 V 691 – Steward Observatory, Kitt Peak-Spacewatch MPS 167107
2005 10 25.18834 01 27 59.01 +04 32 18.7 20.4 V 691 – Steward Observatory, Kitt Peak-Spacewatch MPS 167107
2006 12 20.45244 08 47 38.68 +20 14 13.2 21.1 V G96 – Mt. Lemmon Survey MPS 192243
2006 12 20.45750 08 47 38.54 +20 14 13.8 21.2 V G96 – Mt. Lemmon Survey MPS 192243
2006 12 20.46257 08 47 38.40 +20 14 14.6 20.8 V G96 – Mt. Lemmon Survey MPS 192243
2006 12 20.46752 08 47 38.25 +20 14 14.9 21.1 V G96 – Mt. Lemmon Survey MPS 192243
2006 12 24.36652 08 45 52.88 +20 26 22.3 21.3 V G96 – Mt. Lemmon Survey MPS 192243
2006 12 24.37241 08 45 52.70 +20 26 23.4 20.4 V G96 – Mt. Lemmon Survey MPS 192243
2006 12 24.37825 08 45 52.52 +20 26 24.3 20.9 V G96 – Mt. Lemmon Survey MPS 192243
2006 12 24.38414 08 45 52.34 +20 26 25.8 21.2 V G96 – Mt. Lemmon Survey MPS 192243
2006 12 26.45095 08 44 47.40 +20 33 20.6 20.9 V 691 – Steward Observatory, Kitt Peak-Spacewatch MPS 192243
2006 12 26.46828 08 44 46.79 +20 33 23.8 20.9 V 691 – Steward Observatory, Kitt Peak-Spacewatch MPS 192243
2006 12 26.48327 08 44 46.28 +20 33 26.7 21.2 V 691 – Steward Observatory, Kitt Peak-Spacewatch MPS 192243
2007 01 09.23422 08 35 19.97 +21 25 26.7   691 – Steward Observatory, Kitt Peak-Spacewatch MPS 195533
2007 01 09.25159 08 35 19.12 +21 25 31.2   691 – Steward Observatory, Kitt Peak-Spacewatch MPS 195533
2007 01 09.26891 08 35 18.22 +21 25 35.6   691 – Steward Observatory, Kitt Peak-Spacewatch MPS 195533
2007 02 17.11222 08 02 36.09 +23 33 36.0   691 – Steward Observatory, Kitt Peak-Spacewatch MPS 200390
2007 02 17.13478 08 02 35.22 +23 33 38.5   691 – Steward Observatory, Kitt Peak-Spacewatch MPS 200390
2007 02 17.15732 08 02 34.33 +23 33 41.0   691 – Steward Observatory, Kitt Peak-Spacewatch MPS 200390
2008 03 10.44907 13 39 59.00 -05 57 03.2 21.0 V 691 – Steward Observatory, Kitt Peak-Spacewatch MPS 242133
2008 03 10.46676 13 39 58.52 -05 56 59.8 21.2 V 691 – Steward Observatory, Kitt Peak-Spacewatch MPS 242133
2008 03 10.48447 13 39 58.00 -05 56 56.7 21.4 V 691 – Steward Observatory, Kitt Peak-Spacewatch MPS 242133
2008 03 31.23587 13 27 13.48 -04 33 36.0 20.9 V 691 – Steward Observatory, Kitt Peak-Spacewatch MPS 244709
2008 03 31.25344 13 27 12.64 -04 33 31.4 20.9 V 691 – Steward Observatory, Kitt Peak-Spacewatch MPS 244709
2008 03 31.27103 13 27 11.85 -04 33 27.2 20.8 V 691 – Steward Observatory, Kitt Peak-Spacewatch MPS 244709
2008 04 03.24343 13 24 56.41 -04 19 59.2 20.7 V 691 – Steward Observatory, Kitt Peak-Spacewatch MPS 244709
2008 04 03.26100 13 24 55.58 -04 19 54.7 20.6 V 691 – Steward Observatory, Kitt Peak-Spacewatch MPS 244709
2008 04 03.27856 13 24 54.74 -04 19 50.2 20.7 V 691 – Steward Observatory, Kitt Peak-Spacewatch MPS 244709
2008 04 07.23713 13 21 49.46 -04 01 52.8 20.9 V 691 – Steward Observatory, Kitt Peak-Spacewatch MPS 245758
2008 04 07.25474 13 21 48.60 -04 01 48.2 20.7 V 691 – Steward Observatory, Kitt Peak-Spacewatch MPS 245758
2008 04 07.27236 13 21 47.74 -04 01 43.2 20.8 V 691 – Steward Observatory, Kitt Peak-Spacewatch MPS 245758
2008 04 11.34312 13 18 34.30 -03 43 32.0 20.9 V G96 – Mt. Lemmon Survey MPS 245758
2008 04 11.34828 13 18 34.02 -03 43 30.7 20.6 V G96 – Mt. Lemmon Survey MPS 245758
2008 04 11.35348 13 18 33.73 -03 43 29.3 20.5 V G96 – Mt. Lemmon Survey MPS 245758
2008 04 11.35867 13 18 33.51 -03 43 27.7 20.6 V G96 – Mt. Lemmon Survey MPS 245758
2008 04 29.16737 13 05 14.55 -02 34 49.7   691 – Steward Observatory, Kitt Peak-Spacewatch MPS 248889
2008 04 29.17820 13 05 14.12 -02 34 48.7   691 – Steward Observatory, Kitt Peak-Spacewatch MPS 248889
2008 04 29.18904 13 05 13.69 -02 34 45.7   691 – Steward Observatory, Kitt Peak-Spacewatch MPS 248889
2010 10 03.43793 02 18 57.20 +09 26 10.3 20.1 V 703 – Catalina Sky Survey MPS 350883
2010 10 03.44536 02 18 56.91 +09 26 11.3 19.9 V 703 – Catalina Sky Survey MPS 350883
2010 10 03.45282 02 18 56.55 +09 26 07.5 19.7 V 703 – Catalina Sky Survey MPS 350883
2010 10 03.46034 02 18 56.26 +09 26 07.3 20.8 V 703 – Catalina Sky Survey MPS 350883
2010 10 07.395324 02 16 22.607 +09 12 34.45 20.44 w F51 – Pan-STARRS 1, Haleakala MPS 365147
2010 10 07.410761 02 16 21.935 +09 12 31.25 20.53 w F51 – Pan-STARRS 1, Haleakala MPS 365147
2010 10 07.427128 02 16 21.213 +09 12 27.72 21.00 w F51 – Pan-STARRS 1, Haleakala MPS 365147
2010 10 07.444604 02 16 20.481 +09 12 24.02 20.84 w F51 – Pan-STARRS 1, Haleakala MPS 365147
2010 10 08.559903 02 15 33.561 +09 08 23.92 20.84 g F51 – Pan-STARRS 1, Haleakala MPS 365147
2010 10 08.584523 02 15 32.452 +09 08 18.37 20.43 r F51 – Pan-STARRS 1, Haleakala MPS 365147
2010 10 08.595760 02 15 31.981 +09 08 15.73 20.53 r F51 – Pan-STARRS 1, Haleakala MPS 365147
2010 10 29.26346 01 58 52.50 +07 50 34.2 20.1 V 703 – Catalina Sky Survey MPS 357185
2010 10 29.27105 01 58 52.06 +07 50 32.5 19.0 V 703 – Catalina Sky Survey MPS 357185
2010 10 29.27862 01 58 51.63 +07 50 31.2 20.3 V 703 – Catalina Sky Survey MPS 357185
2010 10 29.28617 01 58 51.16 +07 50 32.6 19.2 V 703 – Catalina Sky Survey MPS 357185
2010 10 31.01394 01 57 25.19 +07 44 27.2 19.9 R J04 – ESA Optical Ground Station, Tenerife MPS 357185
2010 10 31.03536 01 57 24.09 +07 44 22.7 19.6 R J04 – ESA Optical Ground Station, Tenerife MPS 357185
2010 10 31.05677 01 57 22.98 +07 44 18.1 19.6 R J04 – ESA Optical Ground Station, Tenerife MPS 357185
2010 10 31.22574 01 57 14.79 +07 43 43.0 19.8 V G96 – Mt. Lemmon Survey MPS 355060
2010 10 31.23314 01 57 14.43 +07 43 41.7 19.8 V G96 – Mt. Lemmon Survey MPS 355060
